Weather History for PHKO - November, 2010

Change the Weather History Date:

Wednesday, November 24, 2010

  Actual Average Record
Temperature  
Mean Temperature 78 °F -  
Max Temperature 82 °F 81 °F 90 °F (1986)
Min Temperature 73 °F 70 °F 61 °F (2007)
Cooling Degree Days 12    
Growing Degree Days 28 (Base 50)    
Moisture  
Dew Point 68 °F    
Average Humidity 72    
Maximum Humidity 79    
Minimum Humidity 58    
Precipitation  
Precipitation 0.26 in - - ()
Sea Level Pressure  
Sea Level Pressure 29.99 in    
Wind  
Wind Speed 6 mph (SSW)    
Max Wind Speed 12 mph    
Max Gust Speed -    
Visibility 10 miles    
Events Rain    
Averages and records for this station are not official NWS values.
T = Trace of Precipitation, MM = Missing Value Source: NWS Daily Summary

Daily Weather History Graph

Daily Weather History Graph

Search for Another Location

Airport or City:

Trip Planner

Search our weather history database for the weather conditions in past years. The results will help you decide how hot, cold, wet, or windy it might be!

Date:

Astronomy

Nov. 24, 2010 Rise Set
Actual Time 6:38 AM HST 5:43 PM HST
Civil Twilight 6:14 AM HST 6:07 PM HST
Nautical Twilight 5:47 AM HST 6:34 PM HST
Astronomical Twilight 5:21 AM HST 7:00 PM HST
Moon 8:47 PM HST (11/24) 9:27 AM HST (11/24)
Length of Visible Light 11h 52m
Length of Day
11h 05m
Waning Gibbous, 89% of the Moon is Illuminated
Nov 24
Waning Gibbous
Nov 28
Last Quarter
Dec 5
New
Dec 13
First Quarter
Dec 20
Full

Hourly Weather History & Observations

Time (HST) Temp. Heat Index Dew Point Humidity Pressure Visibility Wind Dir Wind Speed Gust Speed Precip Events Conditions
12:05 AM 78.8 °F - 69.8 °F 74% 30.01 in 10.0 mi SW 5.8 mph - N/A   Overcast
12:12 AM 78.8 °F - 68.0 °F 69% 30.01 in 10.0 mi WSW 5.8 mph - N/A   Overcast
12:26 AM 78.8 °F - 69.8 °F 74% 30.01 in 10.0 mi WSW 5.8 mph - N/A   Overcast
12:36 AM 78.8 °F - 69.8 °F 74% 30.01 in 10.0 mi WSW 6.9 mph - N/A   Overcast
12:44 AM 78.8 °F - 69.8 °F 74% 30.01 in 10.0 mi WSW 6.9 mph - N/A   Overcast
12:53 AM 78.1 °F - 69.1 °F 74% 30.01 in 10.0 mi West 6.9 mph - 0.00 in Rain Light Rain
1:51 AM 77.0 °F - 69.8 °F 78% 30.00 in 10.0 mi Calm Calm - 0.00 in Rain Light Rain
1:53 AM 77.0 °F - 69.1 °F 76% 30.00 in 10.0 mi Calm Calm - 0.00 in Rain Light Rain
2:53 AM 75.0 °F - 68.0 °F 79% 29.99 in 9.0 mi Calm Calm - 0.03 in Rain Heavy Rain
3:24 AM 75.2 °F - 66.2 °F 73% 29.98 in 10.0 mi North 3.5 mph - 0.22 in Rain Light Rain
3:53 AM 75.9 °F - 66.9 °F 74% 29.98 in 10.0 mi Calm Calm - 0.23 in Rain Light Rain
4:53 AM 73.9 °F - 66.9 °F 79% 29.99 in 10.0 mi SE 8.1 mph - 0.00 in   Mostly Cloudy
5:53 AM 73.9 °F - 64.9 °F 73% 29.99 in 10.0 mi ESE 6.9 mph - N/A   Mostly Cloudy
6:53 AM 73.0 °F - 64.9 °F 76% 30.01 in 10.0 mi SE 6.9 mph - N/A   Clear
7:53 AM 75.9 °F - 64.9 °F 69% 30.01 in 10.0 mi Calm Calm - N/A   Clear
8:53 AM 79.0 °F - 63.0 °F 58% 30.03 in 10.0 mi South 3.5 mph - N/A   Clear
9:53 AM 80.1 °F 82.3 °F 66.9 °F 64% 30.03 in 10.0 mi South 9.2 mph - N/A   Clear
10:53 AM 81.0 °F 83.8 °F 68.0 °F 65% 30.02 in 10.0 mi SSW 9.2 mph - N/A   Clear
11:53 AM 82.0 °F 85.5 °F 69.1 °F 65% 30.01 in 10.0 mi WSW 9.2 mph - N/A   Clear
12:53 PM 81.0 °F 84.4 °F 70.0 °F 69% 29.98 in 10.0 mi WSW 8.1 mph - N/A   Mostly Cloudy
1:53 PM 81.0 °F 83.8 °F 68.0 °F 65% 29.96 in 10.0 mi WSW 10.4 mph - N/A   Overcast
2:24 PM 80.6 °F 83.9 °F 69.8 °F 70% 29.94 in 10.0 mi West 11.5 mph - N/A   Mostly Cloudy
2:53 PM 80.1 °F 82.9 °F 69.1 °F 69% 29.95 in 10.0 mi West 11.5 mph - 0.00 in Rain Light Rain
3:53 PM 79.0 °F - 70.0 °F 74% 29.94 in 10.0 mi West 11.5 mph - 0.00 in   Overcast
4:53 PM 80.1 °F 82.9 °F 69.1 °F 69% 29.94 in 10.0 mi Calm Calm - N/A   Scattered Clouds
5:53 PM 78.1 °F - 66.0 °F 66% 29.95 in 10.0 mi ENE 6.9 mph - N/A   Mostly Cloudy
6:53 PM 75.9 °F - 69.1 °F 79% 29.96 in 10.0 mi ESE 6.9 mph - N/A   Clear
7:53 PM 77.0 °F - 66.0 °F 69% 29.99 in 10.0 mi ESE 11.5 mph - N/A   Clear
8:53 PM 75.9 °F - 66.9 °F 74% 30.00 in 10.0 mi ESE 5.8 mph - N/A   Clear
9:53 PM 73.9 °F - 66.9 °F 79% 30.01 in 10.0 mi SE 5.8 mph - N/A   Clear
10:53 PM 75.0 °F - 66.9 °F 76% 30.00 in 10.0 mi SE 10.4 mph - N/A   Partly Cloudy
11:53 PM 73.9 °F - 66.9 °F 79% 30.00 in 10.0 mi ENE 8.1 mph - N/A   Clear